Regional Weather Roundup
Issued by NWS

Home | Current Version | Previous Version | Text Only | Print | Product List | Glossary Off
Versions: 1 2 3 4 5 6 7 8 9 10 11 12 13 14 15 16 17 18 19 20 21 22 23 24 25 26 27 28 29 30 31 32 33 34 35 36 37 38 39 40 41 42 43 44 45 46 47 48 49 50

000
ASUS43 KDMX 020107
RWRIA

WEATHER ROUNDUP FOR IOWA
NATIONAL WEATHER SERVICE DES MOINES IA
800 PM CDT MON SEP 01 2014

NOTE: "FAIR" INDICATES FEW OR NO CLOUDS BELOW 12,000 FEET WITH NO
SIGNIFICANT WEATHER AND/OR OBSTRUCTIONS TO VISIBILITY.

* - THESE STATIONS ARE NOT NWS STATIONS...THUS NOT UNDER NWS
QUALITY CONTROL.  THEY ALSO DO NOT REPORT WEATHER SUCH
AS PRECIPITATION OR FOG.

IAZ001>003-012>014-020>022-031>034-043>046-020200-
   NORTHWEST IOWA

CITY           SKY/WX    TMP DP  RH WIND       PRES   REMARKS
CARROLL *      CLEAR     68  66  94 CALM      29.87R
CHEROKEE *     PTCLDY    66  63  88 CALM      29.86R
DENISON *      CLEAR     70  66  88 CALM      29.85S
LE MARS *      CLEAR     70  68  94 CALM      29.86R
ORANGE CITY *  CLEAR     72  63  73 CALM      29.86R
SHELDON *      CLEAR     64  63  94 CALM      29.85R
SIOUX CITY     PTCLDY    73  67  81 CALM      29.85R
SPENCER        PTCLDY    68  61  78 SW5       29.85R
STORM LAKE *   PTCLDY    70  70 100 CALM      29.87R
$$

IAZ055>058-069>071-079>083-090>094-020200-
   SOUTHWEST IOWA

CITY           SKY/WX    TMP DP  RH WIND       PRES   REMARKS
ATLANTIC *     PTCLDY    72  66  83 VRB6      29.84F
AUDUBON *      CLEAR     72  66  83 CALM      29.88F
CLARINDA *     PTCLDY    72  70  94 CALM      29.89F
COUNCIL BLFS * CLEAR     70  68  94 N5        29.86R
CRESTON *      MOCLDY    70  66  88 CALM      29.89S
HARLAN  *      PTCLDY    68  66  94 CALM      29.90F
LAMONI         MOCLDY    70  67  90 W7        29.89R
RED OAK *      CLOUDY    70  68  94 SE5       29.87F
SHENANDOAH *   LGT RAIN  72  68  88 CALM      29.88F
$$

IAZ047>049-059>061-072>074-084-020200-
   CENTRAL IOWA

CITY           SKY/WX    TMP DP  RH WIND       PRES   REMARKS
AMES           CLOUDY    69  66  90 SW5       29.85S
ANKENY *       CLEAR     72  63  73 W3        29.85R
CHARITON *     CLOUDY    72  66  83 NW5       29.87R
DES MOINES     CLOUDY    73  64  73 W5        29.85S
GRINNELL*      MOCLDY    68  64  88 W3        29.86R
KNOXVILLE *    CLOUDY    72  64  78 W8        29.86R
MARSHALLTOWN   CLOUDY    68  64  87 SW6       29.84S
PELLA *        MOCLDY    72  66  83 NW5       29.86R
PERRY *          N/A     70  66  88 W5        29.87R
$$

IAZ004>006-015-016-023>025-035-036-020200-
   NORTH CENTRAL IOWA

CITY           SKY/WX    TMP DP  RH WIND       PRES   REMARKS
ALGONA *       CLEAR     68  63  83 CALM      29.86R
CLARION *      CLEAR     64  61  88 E3        29.85S
ESTHERVILLE    CLEAR     65  62  90 CALM      29.85R
FORT DODGE *   CLOUDY    68  63  83 CALM      29.86R
MASON CITY     MOCLDY    67  57  70 W7        29.86R
FOREST CITY *  CLEAR     68  59  73 CALM      29.85R
IOWA FALLS *     N/A     68  64  88 SW6       29.87R
$$

IAZ007>011-017>019-026>030-037>042-050>054-066-020200-
   NORTHEAST IOWA

CITY           SKY/WX    TMP DP  RH WIND       PRES   REMARKS
CEDAR RAPIDS   CLEAR     69  65  86 W6        29.82S
CHARLES CITY * CLEAR     68  61  77 W5        29.84S
CLINTON *      CLEAR     70  64  83 NW5       29.84R
DECORAH *      CLEAR     68  59  73 CALM      29.81S
DUBUQUE        CLEAR     68  64  87 NW5       29.83R
MONTICELLO *   CLEAR     70  64  83 W6        29.82S
OELWEIN *      PTCLDY    66  63  88 W5        29.84S
WATERLOO       MOCLDY    70  61  73 SW5       29.81S
$$

IAZ064-065-067-068-078-020200-
   EAST CENTRAL IOWA

CITY           SKY/WX    TMP DP  RH WIND       PRES   REMARKS
DAVENPORT      CLEAR     71  65  81 W7        29.82S
IOWA CITY      CLEAR     73  66  78 W5        29.83S
MT. PLEASANT * MOCLDY    73  66  78 SW5       29.85R
MUSCATINE *    CLEAR     73  66  78 W5        29.83R
QUAD CITIES    CLEAR     73  66  78 W8        29.82R
$$

IAZ062-063-075>077-085>089-095>099-020200-
   SOUTHEAST IOWA

CITY           SKY/WX    TMP DP  RH WIND       PRES   REMARKS
BURLINGTON     LGT RAIN  73  68  84 SW5       29.84R
FAIRFIELD *    MOCLDY    73  66  78 W5        29.85R
FORT MADISON * CLEAR     75  70  83 CALM      29.85S
KEOKUK *       CLEAR     75  70  83 CALM      29.83F
OSKALOOSA *      N/A     70  66  88 W3        29.85R
CENTERVILLE *  CLEAR     72  68  88 W3        29.88R
OTTUMWA        MOCLDY    71  66  84 W3        29.84S
WASHINGTON *   CLEAR     72  68  88 W3        29.84R
$$

ABBREVIATIONS USED IN REMARKS
   TC - TEMPERATURES IN CELSIUS
  WCI - WIND CHILL INDEX
   HX - HEAT INDEX
  VSB - VISIBILITY
$$




USA.gov is the U.S. government's official web portal to all federal, state and local government web resources and services.